sat.trackr.live / text

‹ back to catalog

STARLINK-31104

NORAD 58672 · 2023-211F

PAYLOAD ACTIVE UNKNOWN

§ Identity

Operator
Country
US
Launch date
2023-12-29
Launch site
AFETR
Launch vehicle
Mass (kg)
RCS (m²)

Purposes: comms

External: N2YO · Heavens-Above · Gunter

§ Orbital elements

Epoch: 2026-09-20T15:08:20.136768Z

Period
91.60 min
Inclination
42.9852°
Eccentricity
0.0028252
Mean motion
15.72129055 rev/d
Perigee alt
333.8 km
Apogee alt
371.8 km
Semi-major
6,731.0 km
B*
5.9600e-4
RAAN
20.0860°
Arg perigee
346.3265°
Mean anomaly
13.6835°
Rev number
15,406

§ Raw data

STARLINK-311041 58672U 23211F   26263.63078862  .00083055  00000+0  59600-3 0  99992 58672  42.9852  20.0860 0028252 346.3265  13.6835 15.72129055154063

JSON: /api/v1/satellites/58672 · /tle

For live sub-satellite position, see the globe view (requires WebGL).

§ Visibility from observer

Set your observer location to see the next 7 days of passes ≥ 10°. The values pass through the URL so the page stays shareable.

No JS? Fill the form by hand. The geolocation button needs JavaScript.